カタログに戻る

FENGYUN 1C DEB

LostSSO
NORAD 38791·DEBRIS·🇨🇳 China

打ち上げ May 10, 1999 から Taiyuan Satellite Launch Center

Loading…

次のパス (今後24時間)

TLE

古いSource: Space-Track

元期: Aug 12, 2018, 08:02 UTC

1 38791U 99025EUF 18224.33529213  .00019864  00000-0  71466-2 0  9992
2 38791  98.7088  54.4660 0091411  70.8629 290.2906 14.31429953387561

AllMySatでFENGYUN 1C DEBをリアルタイム追跡

Download on the App Store